Home   Weather   Chatham-Kent   Past weeks

Flag for Canada Past Weather in Chatham-Kent, Ontario, Canada — Yesterday and Last 2 Weeks

Now
32 °F

Broken clouds.


Feels Like: 26 °F
Forecast: 36 / 39 °F
Wind: 6 mph from Northeast

Location: Windsor Weather Station

Current Time: Feb 20, 2017 at 8:49:41 am

Latest Report: Feb 20, 2017 at 8:00 am


Visibility: 15 mi

Pressure: 30.30 "Hg

Humidity: 93%

Dew Point: 30 °F

Location of Chatham-KentLocation

Past Weather in Chatham-Kent — Graph

°F

Chatham-Kent Temperature Yesterday

Maximum temperature yesterday: 64 °F (at 3:00 pm)
Minimum temperature yesterday: 36 °F (at 6:00 am)
Average temperature yesterday: 48 °F

High & Low Weather Summary for the Past Weeks

 TemperatureHumidityPressure
High66 °F (Feb 18, 3:00 pm)100% (Feb 7, 3:39 am)30.33 "Hg (Feb 7, 3:39 am)
Low16 °F (Feb 10, 12:00 am)26% (Feb 19, 4:00 pm)29.28 "Hg (Feb 7, 5:38 pm)
Average34 °F74%29.87 "Hg
* Reported Feb 5 7:05 am — Feb 20 7:00 am, Chatham-Kent, Weather by CustomWeather, © 2017

Note: Actual official high and low records may vary slightly from our data, if they occured in-between our weather recording intervals... More about our weather records

Advertising

Chatham-Kent Weather History for the Previous 24 Hours

Scroll right to see more
 ConditionsComfort  
Time TempWeatherWind HumidityBarometerVisibility
7:00 am
Mon, Feb 20
30 °FPassing clouds.8 mph93%30.27 "Hg15 mi
6:00 am34 °FPassing clouds.5 mph87%30.25 "Hg15 mi
5:00 am34 °FPassing clouds.5 mph87%30.22 "Hg15 mi
4:00 am34 °FPassing clouds.3 mph87%30.22 "Hg15 mi
3:00 am34 °FPassing clouds.6 mph87%30.22 "Hg15 mi
2:00 am36 °FPassing clouds.5 mph81%30.20 "Hg15 mi
1:00 am36 °FPassing clouds.6 mph81%30.19 "Hg15 mi
12:00 am37 °FClear.7 mph81%30.18 "Hg15 mi
11:00 pm
Sun, Feb 19
37 °FPassing clouds.8 mph81%30.17 "Hg15 mi
10:00 pm37 °FPassing clouds.8 mph81%30.16 "Hg15 mi
9:00 pm39 °FPassing clouds.7 mph81%30.14 "Hg15 mi
8:00 pm43 °FPassing clouds.8 mph71%30.11 "Hg15 mi
7:52 pm45 °FPassing clouds.12 mph66%30.11 "Hg15 mi
7:00 pm52 °FPassing clouds.5 mph47%30.09 "Hg15 mi
6:00 pm54 °FPartly sunny.7 mph41%30.06 "Hg15 mi
5:00 pm63 °FScattered clouds.12 mph27%30.03 "Hg15 mi
4:00 pm64 °FScattered clouds.14 mph26%30.01 "Hg15 mi
3:00 pm64 °FPassing clouds.13 mph28%30.00 "Hg15 mi
2:00 pm63 °FPassing clouds.12 mph34%29.98 "Hg15 mi
1:00 pm61 °FPassing clouds.12 mph39%29.98 "Hg15 mi
12:00 pm57 °FPassing clouds.9 mph44%30.00 "Hg15 mi
11:00 am54 °FPassing clouds.7 mph51%29.99 "Hg15 mi
10:00 am50 °FPassing clouds.7 mph58%29.97 "Hg15 mi
9:00 am45 °FPartly sunny.6 mph76%29.96 "Hg15 mi
8:00 am39 °FPartly sunny.8 mph87%29.93 "Hg15 mi
Weather by CustomWeather, © 2017

See weather overviewHow to use our weather pages